Flushing, NY

10:15 AM EST on February 26, 2017 (GMT -0500)
La Guardia

Weather History for KLGA - April, 2013

Change the Weather History Date:

Friday, April 19, 2013

  Actual Average Record
Temperature  
Mean Temperature 62 °F 54 °F  
Max Temperature 70 °F 62 °F 85 °F (1976)
Min Temperature 53 °F 46 °F 35 °F (1983)
Degree Days  
Heating Degree Days 3 11  
Month to date heating degree days 247 274  
Since 1 July heating degree days 4194 4410  
Cooling Degree Days 0 0  
Month to date cooling degree days 0 0  
Year to date cooling degree days 0 0  
Growing Degree Days 12 (Base 50)    
Moisture  
Dew Point 55 °F    
Average Humidity 82    
Maximum Humidity 100    
Minimum Humidity 63    
Precipitation  
Precipitation 0.02 in 0.13 in 1.41 in (1978)
Month to date precipitation 1.06 2.62  
Year to date precipitation 9.33 12.52  
Snow  
Snow 0.00 in 0.00 in T in (1983)
Month to date snowfall 0.0 0.5  
Since 1 July snowfall 22.2 26.9  
Snow Depth 0.00 in    
Sea Level Pressure  
Sea Level Pressure 29.87 in    
Wind  
Wind Speed 13 mph (South)    
Max Wind Speed 30 mph    
Max Gust Speed 36 mph    
Visibility 5 miles    
Events Fog , Rain    
T = Trace of Precipitation, MM = Missing Value Source: NWS Daily Summary

Daily Weather History Graph

Daily Weather History Graph

Search for Another Location

Airport or City:

Trip Planner

Search our weather history database for the weather conditions in past years. The results will help you decide how hot, cold, wet, or windy it might be!

Date:

Astronomy

Apr. 19, 2013 Rise Set
Actual Time 6:10 AM EDT 7:39 PM EDT
Civil Twilight 5:41 AM EDT 8:08 PM EDT
Nautical Twilight 5:07 AM EDT 8:42 PM EDT
Astronomical Twilight 4:30 AM EDT 9:19 PM EDT
Moon 1:19 PM EDT (4/19) 2:26 AM EDT (4/19)
Length of Visible Light 14h 26m
Length of Day
13h 29m
First Quarter, 61% of the Moon is Illuminated
Apr 19
First Quarter
Apr 25
Full
May 2
Last Quarter
May 9
New
May 18
First Quarter

Hourly Weather History & Observations

Time (EDT) Temp. Dew Point Humidity Pressure Visibility Wind Dir Wind Speed Gust Speed Precip Events Conditions
12:10 AM 53.6 °F 51.8 °F 94% 30.10 in 0.2 mi South 3.5 mph - N/A   Overcast
12:30 AM 53.6 °F 53.6 °F 100% 30.10 in 0.1 mi South 5.8 mph - N/A Fog Fog
12:45 AM 53.6 °F 53.6 °F 100% 30.09 in 0.1 mi South 10.4 mph 16.1 mph N/A Fog Fog
12:51 AM 54.0 °F 53.1 °F 97% 30.09 in 0.1 mi South 6.9 mph 16.1 mph N/A Fog Fog
1:51 AM 54.0 °F 53.1 °F 97% 30.06 in 0.1 mi South 6.9 mph - N/A Fog Fog
2:48 AM 53.6 °F 51.8 °F 94% 30.04 in 3.0 mi SSE 6.9 mph - N/A   Overcast
2:51 AM 54.0 °F 52.0 °F 93% 30.04 in 3.0 mi SSE 6.9 mph - N/A   Overcast
3:40 AM 53.6 °F 51.8 °F 94% 30.01 in 0.2 mi SSE 5.8 mph - N/A   Overcast
3:51 AM 54.0 °F 52.0 °F 93% 30.01 in 0.2 mi SSE 6.9 mph - N/A   Overcast
4:34 AM 55.4 °F 53.6 °F 94% 29.99 in 2.5 mi South 6.9 mph - N/A   Overcast
4:51 AM 55.0 °F 53.1 °F 93% 29.99 in 2.5 mi South 6.9 mph - N/A   Overcast
5:21 AM 55.4 °F 53.6 °F 94% 29.99 in 1.8 mi South 6.9 mph - N/A   Overcast
5:31 AM 55.4 °F 53.6 °F 94% 29.98 in 1.0 mi South 9.2 mph - N/A   Overcast
5:34 AM 55.4 °F 53.6 °F 94% 29.98 in 0.2 mi South 6.9 mph - N/A Fog Fog
5:51 AM 55.0 °F 54.0 °F 96% 29.99 in 0.2 mi South 5.8 mph - N/A   Overcast
6:51 AM 55.9 °F 54.0 °F 93% 29.97 in 2.5 mi South 6.9 mph - N/A   Mostly Cloudy
7:01 AM 55.4 °F 53.6 °F 94% 29.97 in 2.0 mi SSE 8.1 mph - N/A   Overcast
7:51 AM 57.0 °F 54.0 °F 89% 29.97 in 2.5 mi South 6.9 mph - N/A   Mostly Cloudy
8:51 AM 60.1 °F 55.0 °F 83% 29.96 in 3.0 mi South 9.2 mph - N/A   Overcast
9:07 AM 60.8 °F 55.4 °F 82% 29.95 in 3.0 mi South 11.5 mph - N/A   Overcast
9:46 AM 60.8 °F 55.4 °F 82% 29.94 in 10.0 mi South 8.1 mph - N/A   Mostly Cloudy
9:51 AM 62.1 °F 55.0 °F 78% 29.94 in 10.0 mi SSE 8.1 mph - N/A   Mostly Cloudy
10:51 AM 64.0 °F 55.0 °F 73% 29.91 in 10.0 mi South 17.3 mph - N/A   Mostly Cloudy
11:51 AM 68.0 °F 55.9 °F 65% 29.88 in 10.0 mi South 18.4 mph 26.5 mph N/A   Mostly Cloudy
12:51 PM 64.9 °F 55.0 °F 70% 29.85 in 10.0 mi South 19.6 mph - N/A   Overcast
1:51 PM 68.0 °F 57.0 °F 68% 29.82 in 10.0 mi South 24.2 mph 29.9 mph N/A   Mostly Cloudy
2:51 PM 70.0 °F 57.9 °F 65% 29.77 in 10.0 mi South 20.7 mph 32.2 mph N/A   Mostly Cloudy
3:51 PM 66.0 °F 57.0 °F 73% 29.73 in 10.0 mi South 23.0 mph 29.9 mph N/A   Mostly Cloudy
4:08 PM 64.4 °F 57.2 °F 77% 29.73 in 10.0 mi South 27.6 mph 35.7 mph N/A   Overcast
4:51 PM 62.1 °F 55.9 °F 80% 29.71 in 10.0 mi South 17.3 mph 25.3 mph N/A   Overcast
5:51 PM 61.0 °F 55.0 °F 81% 29.71 in 10.0 mi South 18.4 mph 24.2 mph N/A   Mostly Cloudy
6:51 PM 61.0 °F 55.0 °F 81% 29.69 in 10.0 mi South 13.8 mph - N/A   Overcast
7:20 PM 60.8 °F 55.4 °F 82% 29.68 in 2.5 mi South 17.3 mph 25.3 mph N/A   Overcast
7:51 PM 62.1 °F 57.0 °F 84% 29.67 in 2.5 mi South 15.0 mph 24.2 mph N/A   Haze
8:48 PM 60.8 °F 57.2 °F 88% 29.67 in 3.0 mi South 13.8 mph 20.7 mph N/A   Overcast
8:51 PM 60.1 °F 57.0 °F 90% 29.66 in 3.0 mi South 15.0 mph 20.7 mph N/A   Overcast
9:48 PM 62.6 °F 57.2 °F 82% 29.66 in 6.0 mi South 12.7 mph 17.3 mph N/A   Overcast
9:51 PM 62.1 °F 57.9 °F 86% 29.66 in 6.0 mi South 10.4 mph - N/A   Overcast
10:51 PM 63.0 °F 57.9 °F 84% 29.68 in 10.0 mi Variable 6.9 mph 18.4 mph 0.00 in Rain Light Rain
11:03 PM 62.6 °F 57.2 °F 82% 29.68 in 10.0 mi South 6.9 mph - 0.00 in Rain Light Rain
11:51 PM 63.0 °F 59.0 °F 87% 29.65 in 8.0 mi South 8.1 mph - 0.01 in Rain Light Rain